Regional Weather Roundup
Issued by NWS Goodland, KS

Home | Current Version | Previous Version | Graphics & Text | Print | Product List | Glossary On
Versions: 1 2 3 4 5 6 7 8 9 10 11 12 13 14 15 16 17 18 19 20 21 22 23 24 25 26 27 28 29 30 31 32 33 34 35 36 37 38 39 40 41 42 43 44 45 46 47 48 49 50
000
ASUS43 KGLD 252108
RWRGLD

GOODLAND FORECAST AREA HOURLY WEATHER ROUNDUP
NATIONAL WEATHER SERVICE GOODLAND KS
300 PM MDT TUE APR 25 2017

...OFFICIAL OBSERVATIONS...

CITY           SKY/WX    TMP DP  RH WIND       PRES   REMARKS
GOODLAND KS    MOSUNNY   61  41  47 N16       29.54S
HILL CITY KS   CLOUDY    58  44  60 N16       29.56R
IMPERIAL NEB   PTSUNNY   53  43  68 NE10      29.59R
MCCOOK NEB     CLOUDY    52  43  71 N10       29.59S
AKRON CO       MOSUNNY   59  32  36 N17G23    29.55F
BURLINGTON CO  NOT AVBL
LIMON CO       LGT RAIN  45  40  82 SW7       29.61R
$$

...UNOFFICIAL OBSERVATIONS...

CITY           SKY/WX    TMP DP  RH WIND       PRES   REMARKS
LENORA KS        N/A     52  32  46 MISG        N/A
NORTON KS      CLOUDY    48  37  66 N13       29.58
SHARON SPRINGS   N/A     59  44  56 NE12G23     N/A
TRENTON NEB      N/A     50  32  50 N9          N/A
KIT CARSON CO    N/A     58  36  44 MISG        N/A
YUMA CO        FAIR      59  34  38 N13G21    29.55F
$$



USA.gov is the U.S. government's official web portal to all federal, state and local government web resources and services.